| time (UTC) | temp F | wind direction | speed knots | gust knots | rain 1hr in | rain 24hr in | rain mn in | humidity % | barometer mb |
| 20260504174526 | 49 | 275 | 0.0 | 1.7 | 0.00 | 0.01 | 0.00 | 92 | 1019.4 |
| 20260504173024 | 50 | 275 | 1.7 | 3.5 | 0.00 | 0.01 | 0.00 | 92 | 1019.4 |
| 20260504171526 | 50 | 271 | 1.7 | 3.5 | 0.00 | 0.01 | 0.00 | 92 | 1019.3 |
| 20260504120114 | 51 | 318 | 0.0 | 1.7 | 0.00 | 0.01 | 0.01 | 91 | 1018.7 |
| 20260504081529 | 58 | 309 | 0.9 | 2.6 | 0.00 | 0.01 | 0.01 | 79 | 1015.6 |
| 20260504050016 | 65 | 295 | 6.1 | 12.2 | 0.00 | 0.00 | 0.00 | 63 | 1013.3 |
| 20260504044515 | 66 | 310 | 5.2 | 13.9 | 0.00 | 0.00 | 0.00 | 63 | 1013.3 |
| 20260504043015 | 65 | 304 | 7.8 | 13.0 | 0.00 | 0.00 | 0.00 | 63 | 1013.3 |
| 20260504041514 | 66 | 288 | 7.8 | 13.0 | 0.00 | 0.00 | 0.00 | 63 | 1013.2 |
| 20260504040014 | 65 | 326 | 6.1 | 12.2 | 0.00 | 0.00 | 0.00 | 65 | 1013.3 |
| 20260504034521 | 66 | 289 | 8.7 | 12.2 | 0.00 | 0.00 | 0.00 | 64 | 1013.3 |
| 20260504033013 | 65 | 323 | 7.0 | 13.0 | 0.00 | 0.00 | 0.00 | 65 | 1013.5 |
| 20260504031513 | 66 | 308 | 8.7 | 14.8 | 0.00 | 0.00 | 0.00 | 63 | 1013.5 |
| 20260504030012 | 67 | 286 | 7.8 | 13.9 | 0.00 | 0.00 | 0.00 | 63 | 1013.7 |
| 20260504024510 | 67 | 296 | 7.8 | 14.8 | 0.00 | 0.00 | 0.00 | 63 | 1013.9 |
| 20260504023007 | 66 | 296 | 9.6 | 15.6 | 0.00 | 0.00 | 0.00 | 64 | 1014.1 |
| 20260504021505 | 66 | 309 | 7.0 | 14.8 | 0.00 | 0.00 | 0.00 | 65 | 1014.3 |
| 20260504020004 | 65 | 298 | 8.7 | 16.5 | 0.00 | 0.00 | 0.00 | 65 | 1014.5 |
| 20260504014601 | 64 | 311 | 9.6 | 16.5 | 0.00 | 0.00 | 0.00 | 65 | 1014.5 |
| 20260504013105 | 64 | 311 | 7.0 | 13.9 | 0.00 | 0.00 | 0.00 | 67 | 1014.6 |
| 20260504011557 | 63 | 300 | 8.7 | 14.8 | 0.00 | 0.00 | 0.00 | 67 | 1014.6 |
| 20260504010057 | 63 | 259 | 8.7 | 13.0 | 0.00 | 0.00 | 0.00 | 67 | 1014.5 |
| 20260504004647 | 62 | 294 | 7.8 | 17.4 | 0.00 | 0.00 | 0.00 | 69 | 1014.4 |
| 20260504003047 | 61 | 299 | 7.8 | 13.0 | 0.00 | 0.00 | 0.00 | 71 | 1014.3 |
| 20260504001554 | 60 | 355 | 7.8 | 13.9 | 0.00 | 0.00 | 0.00 | 71 | 1014.3 |
| 20260504000035 | 59 | 307 | 7.0 | 12.2 | 0.00 | 0.00 | 0.00 | 74 | 1014.4 |
| 20260503234534 | 58 | 294 | 6.1 | 11.3 | 0.00 | 0.00 | 0.00 | 75 | 1014.3 |
| 20260503233027 | 58 | 281 | 6.1 | 12.2 | 0.00 | 0.00 | 0.00 | 75 | 1014.3 |
| 20260503231531 | 57 | 307 | 7.0 | 13.0 | 0.00 | 0.00 | 0.00 | 76 | 1014.3 |
| 20260503230019 | 56 | 327 | 6.1 | 12.2 | 0.00 | 0.00 | 0.00 | 77 | 1014.2 |
| 20260503224515 | 55 | 309 | 4.3 | 10.4 | 0.00 | 0.00 | 0.00 | 79 | 1014.1 |
| 20260503223021 | 54 | 314 | 5.2 | 10.4 | 0.00 | 0.00 | 0.00 | 81 | 1014.0 |
| 20260503221507 | 53 | 344 | 5.2 | 9.6 | 0.00 | 0.00 | 0.00 | 82 | 1014.0 |
| 20260503220004 | 52 | 328 | 4.3 | 9.6 | 0.00 | 0.01 | 0.00 | 84 | 1014.0 |
| 20260503214559 | 50 | 302 | 3.5 | 9.6 | 0.00 | 0.01 | 0.00 | 85 | 1014.0 |
| 20260503213125 | 50 | 327 | 1.7 | 7.8 | 0.00 | 0.01 | 0.00 | 86 | 1013.9 |
| 20260503211618 | 50 | 348 | 2.6 | 5.2 | 0.00 | 0.01 | 0.00 | 86 | 1013.7 |
| 20260503210051 | 49 | 321 | 3.5 | 7.0 | 0.00 | 0.01 | 0.00 | 87 | 1013.5 |
| 20260503204603 | 49 | 333 | 2.6 | 7.0 | 0.00 | 0.08 | 0.00 | 87 | 1013.3 |
| 20260503203049 | 49 | 350 | 1.7 | 3.5 | 0.00 | 0.08 | 0.00 | 87 | 1013.2 |
| 20260503201547 | 49 | 342 | 0.9 | 3.5 | 0.00 | 0.08 | 0.00 | 86 | 1013.1 |
| 20260503200046 | 49 | 324 | 1.7 | 3.5 | 0.00 | 0.08 | 0.00 | 86 | 1013.0 |
| 20260503194544 | 50 | 318 | 1.7 | 3.5 | 0.00 | 0.22 | 0.00 | 85 | 1013.1 |
| 20260503193042 | 50 | 331 | 1.7 | 3.5 | 0.00 | 0.22 | 0.00 | 85 | 1013.0 |
| 20260503191555 | 50 | 325 | 1.7 | 4.3 | 0.00 | 0.22 | 0.00 | 84 | 1012.9 |
| 20260503190044 | 51 | 331 | 1.7 | 4.3 | 0.00 | 0.22 | 0.00 | 84 | 1012.8 |
| 20260503184541 | 51 | 327 | 2.6 | 4.3 | 0.00 | 0.30 | 0.00 | 83 | 1012.8 |
| 20260503183042 | 51 | 320 | 1.7 | 4.3 | 0.00 | 0.30 | 0.00 | 82 | 1012.8 |
| 20260503181535 | 52 | 325 | 2.6 | 4.3 | 0.00 | 0.30 | 0.00 | 82 | 1012.8 |
| 20260503180036 | 52 | 313 | 2.6 | 3.5 | 0.00 | 0.30 | 0.00 | 82 | 1012.8 |